Location: Udine
(46.0620°N, 13.2420°E)
Time: 02:36:56
(UTC+02:00)

ISS - Pass Details

Date: 14 May 2021
Orbit: 417 x 422 km, 51.6° (Epoch: 14 June)

Event Time Altitude Azimuth Distance (km) Brightness Sun altitude
Rises 22:48:21 0° 236° (WSW) 2,354 0.1 -18.3°
Reaches altitude 10° 22:50:26 10° 235° (SW) 1,495 -1.0 -18.5°
Maximum altitude 22:53:47 76° 150° (SSE) 437 -3.9 -18.8°
Enters shadow 22:55:16 31° 69° (ENE) 772 -2.6 -18.9°
Exits shadow 22:57:17 - 64° (ENE) 1,558 -0.9 -19.1°
Sets 22:59:16 0° 63° (ENE) 2,373 0.0 -19.3°
